User: anonymous   Login
Location: Unspecified
(0.0000°N, 0.0000°E)
Time: 23:49:29
(UTC+00:00)
Language:

CUTE-I - Orbit

View from above orbital plane
View from above orbital plane
View from above satellite
View from above satellite

Ground track
Ground track

The orbit data is extracted from the following two-line orbital elements,

1 27844U 03031E   17348.90103811 +.00000064 +00000-0 +48775-4 0  9993
2 27844 098.6887 355.2705 0009776 178.8859 181.2342 14.22081983749969
Epoch (UTC): 14 December 2017 21:37:29
Eccentricity: 0.0009776
inclination: 98.6887°
perigee height: 811 km
apogee height: 825 km
right ascension of ascending node: 355.2705°
argument of perigee: 178.8859°
revolutions per day: 14.22081983
mean anomaly at epoch: 181.2342°
orbit number at epoch: 74996

The dashed part of the orbit path shows where the satellite is in the earth's shadow,  

DLR